Helicity
28 19 27 43 58 60 55 51 43 51 53 65 52 5 -58 26 21 9 6 20 26 14 9 -1 4 20 27 27 28 26 20 26 38 16 11 18 34 67 97 107 100 92 94
57 47 40 40 46 53 50 46 39 34 38 27 19 2 -20 -25 20 24 -8 2 3 12 22 10 -4 14 28 39 27 12 24 31 45 42 3 -20 22 72 58 88 87 78 102
58 47 49 51 54 56 57 48 39 32 28 22 12 2 -7 3 9 29 29 16 15 25 28 22 8 -1 16 30 33 24 8 21 24 34 54 59 21 21 41 84 103 98 129
61 34 35 41 55 66 63 53 46 45 37 22 13 3 -9 -37 11 30 27 29 18 19 23 30 23 17 24 33 40 38 33 29 30 37 52 60 61 36 -7 58 118 110 109
84 50 35 22 28 38 58 65 61 59 51 41 32 17 -1 6 -32 -13 18 7 19 20 25 27 27 32 33 32 39 53 47 40 38 32 55 57 69 68 64 17 5 67 99
107 70 48 58 64 46 40 47 72 98 87 74 54 34 24 11 -6 -37 -58 4 25 23 16 25 32 33 33 30 34 42 37 39 35 31 31 45 58 72 74 59 36 40 46
135 113 114 118 96 81 69 61 66 82 68 58 55 46 34 33 29 16 11 -28 -14 1 21 22 31 48 48 39 33 37 34 36 40 39 43 45 46 50 52 54 49 52 53
137 115 113 124 98 86 96 104 106 91 87 75 64 44 29 22 25 28 40 54 53 47 37 36 34 43 63 62 52 51 36 38 40 46 49 52 49 49 60 66 49 43 54
115 120 152 145 123 146 148 141 116 89 64 48 35 34 27 22 14 11 5 20 23 22 24 28 38 54 72 79 83 81 69 65 51 47 59 56 51 53 64 73 61 70 55
135 163 183 205 195 195 182 137 93 69 46 35 29 30 22 16 12 11 10 4 -0 6 5 18 33 51 66 80 101 105 104 75 66 68 65 68 70 74 58 74 73 84 73
50 211 222 243 280 189 130 105 78 50 32 20 12 11 13 7 3 4 10 9 8 9 9 12 20 44 73 98 103 116 113 85 70 62 58 56 87 74 77 68 62 56 68
61 185 263 274 166 106 78 67 46 25 -1 -18 -9 2 -1 -7 -1 2 8 17 13 30 24 27 29 38 59 85 105 102 117 113 86 85 64 50 80 91 83 75 71 68 63
180 287 283 219 162 87 38 20 9 5 1 -5 -19 -32 -35 -29 -17 -5 6 11 16 22 41 43 38 43 56 77 106 118 125 145 131 119 90 72 72 77 84 72 70 65 55
281 239 210 179 136 96 60 43 29 -0 -18 -34 -42 -38 -21 -16 -13 -11 -6 28 45 47 38 41 46 52 59 68 79 99 110 128 141 144 136 120 107 88 86 79 66 61 51
253 241 196 163 144 121 93 46 20 7 -37 -38 -23 -9 -4 -11 -16 -0 40 56 51 63 66 59 64 65 66 79 80 95 109 123 134 163 157 155 128 102 101 98 65 60 55
185 148 178 154 108 58 34 -1 -19 -13 -4 -8 -27 -15 -2 15 33 35 45 58 62 57 53 69 71 87 84 74 72 74 109 119 129 124 157 157 109 103 74 66 46 48 50
107 114 92 75 63 36 10 -19 -23 -17 -23 -28 -32 -14 6 16 30 39 39 38 45 57 59 71 85 77 90 90 89 98 110 120 129 137 150 155 150 116 108 82 64 62 46
168 113 91 72 28 1 -9 -12 10 -2 -6 -14 -4 27 41 36 42 39 45 51 35 57 65 72 75 88 107 103 100 97 106 115 115 132 141 151 148 150 116 92 82 79 87
68 65 54 31 32 38 19 2 19 27 30 43 72 70 55 44 43 39 39 45 44 48 61 62 71 80 86 83 102 103 108 102 92 121 149 165 141 118 73 105 86 87 95
107 65 -1 13 84 103 139 119 84 81 90 76 77 70 62 56 50 41 39 41 29 20 34 48 52 42 48 48 72 104 101 103 107 100 142 109 126 107 72 109 91 90 97
124 121 137 135 115 104 121 118 111 100 76 66 61 58 49 42 38 34 40 32 23 18 34 33 40 39 33 45 61 105 116 104 106 127 136 157 93 80 68 74 102 93 93
136 120 126 119 107 98 98 98 88 69 66 62 58 54 44 47 39 33 33 29 12 21 25 21 32 30 23 19 49 101 139 115 100 105 141 153 96 81 78 87 74 67 81
133 97 97 100 90 76 80 73 70 75 71 71 70 67 56 54 53 42 34 34 20 5 14 26 26 40 24 24 28 83 124 132 108 94 123 108 92 87 97 78 65 72 119
93 88 79 79 75 76 88 121 98 97 104 102 94 90 79 61 61 73 61 53 47 17 18 19 32 37 36 26 23 49 107 136 115 60 110 119 114 131 148 144 136 135 124
93 89 92 95 96 92 93 107 122 143 141 140 132 117 112 104 91 88 74 63 73 38 31 43 42 31 33 28 22 21 67 107 110 91 164 205 216 197 179 160 138 130 122
95 110 106 111 108 110 102 99 116 135 151 157 152 141 126 103 97 88 52 28 4 -14 -1 -1 6 33 8 3 1 -1 19 69 71 136 176 189 205 155 154 139 133 144 106
Wind_Speed
51 48 49 50 51 48 50 52 52 51 45 38 31 26 19 36 41 41 45 49 51 54 53 54 55 56 60 62 63 64 66 68 64 73 73 71 72 73 71 69 71 72 71
56 56 55 51 51 51 46 46 47 45 41 36 31 24 22 16 33 37 48 51 51 49 49 55 59 59 63 64 64 64 67 65 62 65 71 74 67 61 66 68 71 75 73
56 58 58 54 52 50 49 45 45 43 38 33 29 25 20 22 27 42 46 48 53 53 53 53 58 60 59 63 64 63 63 66 61 58 60 65 65 68 56 51 60 65 67
55 54 55 54 53 52 49 46 44 43 39 33 29 24 19 9 30 52 54 58 58 59 58 56 57 58 59 60 61 60 61 62 65 61 59 63 70 69 77 57 63 69 73
53 54 55 52 50 49 46 45 44 44 44 41 35 29 19 15 4 16 59 61 61 60 62 61 61 59 59 59 59 61 61 62 64 63 62 63 66 69 75 90 77 74 76
53 52 52 53 53 54 52 47 46 47 48 45 43 40 33 25 17 6 13 57 63 63 63 62 62 62 59 60 61 60 61 63 65 65 66 65 66 67 71 78 83 83 75
50 52 53 54 55 56 56 54 52 52 52 52 50 47 44 44 41 22 28 65 67 67 68 66 65 64 62 62 61 62 64 63 65 66 67 68 70 71 74 79 84 86 81
47 48 50 52 52 55 56 55 56 57 57 56 56 55 53 51 52 56 57 60 66 70 71 71 70 69 65 63 63 64 65 65 67 70 70 71 71 72 72 76 82 91 86
46 47 50 51 52 55 57 57 56 56 58 59 59 60 61 61 61 62 62 62 64 67 67 69 72 72 70 69 68 69 68 69 73 74 73 74 74 72 70 72 74 79 91
45 48 50 53 53 54 56 57 58 59 59 61 61 62 63 64 65 65 67 68 69 69 71 71 70 69 68 69 69 72 70 73 72 73 75 75 75 73 73 73 74 72 80
44 50 52 55 55 53 55 59 61 63 64 65 66 69 70 69 70 71 72 73 74 74 76 76 75 71 67 63 66 68 68 71 70 70 74 76 74 78 76 74 75 79 79
46 49 52 52 53 55 58 63 67 69 69 71 73 76 77 78 78 78 79 79 81 79 79 79 79 78 74 69 66 67 64 68 71 69 71 76 73 72 71 71 72 73 74
52 51 52 54 56 59 63 67 71 73 76 79 81 82 83 85 86 86 86 85 84 85 85 83 84 82 79 77 71 67 66 65 66 67 69 73 73 74 70 72 75 76 78
49 49 54 59 62 65 67 72 77 79 82 83 84 88 90 91 91 92 93 91 89 90 88 87 85 84 84 80 77 75 74 70 68 65 65 63 66 69 68 71 76 78 83
50 56 61 67 71 73 76 79 80 85 85 88 91 94 93 92 91 93 95 93 91 90 90 90 89 87 82 81 80 78 78 77 75 69 66 64 62 64 62 64 75 79 81
59 63 67 72 78 79 84 84 88 89 89 92 92 94 94 96 96 95 95 93 93 92 91 92 91 92 87 85 84 81 82 80 78 78 72 68 66 65 66 68 68 75 80
66 70 74 77 83 83 86 88 90 90 92 93 93 96 95 96 95 93 93 93 93 91 92 91 90 92 91 89 89 89 85 84 82 79 75 72 67 65 66 67 72 74 76
70 74 81 87 86 84 88 87 88 90 93 94 95 95 94 94 93 93 94 93 91 92 92 92 90 90 89 89 89 90 88 84 82 78 76 74 72 67 67 70 72 73 72
73 81 88 91 90 88 90 90 91 91 93 93 92 91 91 93 94 96 96 94 93 93 92 90 91 90 90 88 89 87 85 84 83 77 73 71 73 69 68 68 72 72 71
83 92 94 91 88 92 88 88 90 88 89 88 88 87 88 89 92 93 94 92 89 91 90 93 88 90 91 88 89 87 82 84 81 76 72 70 70 68 65 68 70 74 71
91 93 89 87 84 84 83 86 86 86 85 85 86 87 87 88 88 90 90 90 93 90 92 93 90 88 86 88 88 86 82 79 80 78 74 69 66 65 63 63 65 68 64
90 84 85 83 81 80 79 83 84 83 82 83 84 84 85 85 86 88 91 89 89 91 91 91 91 86 84 84 84 85 83 79 81 80 75 70 65 61 58 60 63 63 58
80 79 79 80 80 78 76 81 82 80 82 82 84 84 84 84 83 85 88 89 87 86 88 88 90 91 85 84 84 85 85 82 79 74 72 70 64 59 56 56 58 57 56
72 72 73 76 79 76 75 73 77 78 80 83 84 84 84 87 83 82 81 84 86 85 86 87 90 91 89 87 83 81 81 81 78 73 66 63 60 54 52 52 52 54 56
68 71 74 78 78 78 78 77 80 81 85 84 84 86 86 87 88 85 85 85 83 80 86 87 88 92 94 87 88 90 87 83 77 71 62 57 56 56 56 56 54 52 52
72 74 75 75 76 78 82 87 88 88 88 87 86 85 85 88 89 90 97 86 87 88 87 89 89 92 92 97 94 93 92 90 83 64 60 57 54 56 56 56 54 51 50
Wind_Direction
2 2 1 0 -0 3 5 11 15 22 32 37 47 48 65 334 322 305 291 290 293 287 293 291 291 293 289 288 288 288 289 289 293 290 290 289 288 284 283 283 282 281 281
358 359 357 357 357 359 5 9 13 18 28 37 47 61 53 62 342 330 293 291 294 300 301 293 289 293 289 289 289 288 289 291 293 292 292 289 291 292 287 283 281 280 281
354 354 356 358 359 359 2 5 8 12 23 32 41 52 57 25 359 326 313 302 296 298 300 299 296 291 294 290 290 290 289 290 294 293 292 291 288 293 295 295 289 288 286
351 353 355 356 357 359 1 3 4 7 14 22 25 32 38 66 356 313 306 299 295 294 294 296 297 295 294 293 292 294 291 291 291 294 291 288 287 289 288 293 291 289 288
355 356 356 357 1 3 5 5 4 4 5 8 13 15 23 26 75 6 301 295 296 295 293 291 292 293 293 292 294 293 294 292 291 292 294 292 290 288 287 284 291 291 289
355 0 2 4 5 5 6 7 5 360 358 360 360 1 2 5 6 234 230 286 296 296 294 292 290 290 292 292 293 294 294 294 293 292 292 292 292 292 290 289 288 290 294
360 1 3 4 4 5 6 8 7 4 1 358 356 355 353 348 346 350 306 275 283 287 289 291 289 289 290 291 292 293 293 294 294 294 293 292 292 293 292 290 290 290 293
359 360 359 358 358 359 360 360 358 355 354 354 352 352 350 348 342 331 326 319 307 299 294 292 290 290 292 292 292 293 294 293 292 293 294 293 294 294 293 292 293 290 293
352 352 353 353 351 352 351 350 350 350 349 347 345 343 340 334 332 328 324 321 316 308 306 301 296 294 293 291 290 291 292 293 291 291 292 292 293 294 294 294 293 294 292
345 345 346 347 347 348 347 348 349 346 344 342 342 342 339 333 327 326 322 317 313 313 308 305 301 300 297 294 292 290 291 291 292 292 292 292 293 293 293 295 295 294 294
336 338 338 339 339 342 343 343 342 340 339 338 335 332 331 331 327 322 318 317 315 311 306 305 303 302 302 300 296 293 292 292 293 294 292 292 293 292 291 292 293 292 292
334 332 334 337 337 337 336 335 334 333 332 331 329 326 324 322 322 320 317 314 311 310 308 305 303 299 299 299 298 295 294 291 291 294 294 292 295 294 292 292 293 294 294
328 329 331 333 334 334 332 331 330 328 326 325 323 322 321 319 316 316 315 313 311 308 307 305 302 300 298 296 296 295 293 292 292 293 295 294 294 295 293 290 291 292 292
325 329 330 330 329 329 329 327 325 325 322 321 320 319 318 317 316 314 313 311 310 308 306 305 303 301 297 295 293 292 291 290 291 292 294 298 298 298 297 292 290 291 292
326 326 326 325 325 325 325 324 324 322 321 320 318 316 317 317 316 315 315 312 310 308 306 304 302 301 300 297 294 292 289 288 288 290 292 294 298 297 298 297 291 291 293
321 322 323 324 323 322 321 321 320 320 319 317 316 316 316 315 315 314 315 314 311 309 306 304 302 299 298 296 295 293 290 288 286 287 289 290 293 294 294 295 294 292 292
319 319 320 320 320 320 320 318 318 319 318 316 315 315 315 315 314 314 314 313 312 310 308 306 304 300 299 296 294 292 291 288 286 285 287 288 290 292 292 293 293 292 293
317 319 319 319 319 319 318 318 317 317 316 315 314 315 314 313 315 314 313 313 313 310 309 307 305 303 301 299 296 293 291 289 287 285 284 284 286 288 290 290 291 291 295
315 317 318 317 317 317 317 317 316 315 316 315 315 315 315 313 313 312 312 312 312 310 310 308 306 304 303 301 298 296 293 289 287 285 283 282 282 284 286 287 289 290 293
313 315 316 316 315 315 317 317 316 316 316 317 317 316 316 315 313 313 312 312 311 310 311 308 308 305 303 303 300 298 294 289 288 287 284 281 280 282 283 284 286 287 290
313 314 315 315 316 317 317 316 317 316 317 317 316 315 315 314 314 313 313 312 311 309 309 308 308 307 306 303 302 299 296 291 288 286 284 282 280 280 280 281 284 286 290
313 314 315 315 317 318 319 318 317 319 319 318 318 318 317 316 314 313 312 312 311 309 308 308 307 308 309 307 304 300 297 294 288 284 283 281 280 279 278 280 282 284 286
312 315 316 317 318 319 320 318 319 321 320 319 318 318 317 317 317 315 313 311 311 309 308 307 306 305 308 308 306 302 296 294 292 287 283 280 279 278 278 279 281 281 282
315 319 319 319 319 321 320 320 320 321 320 318 317 317 317 316 316 316 316 313 311 309 307 306 305 304 304 307 308 304 299 294 292 290 284 279 276 275 277 279 280 281 281
316 318 319 318 318 320 319 320 320 319 317 315 314 315 315 314 312 312 312 311 310 309 305 304 304 303 301 304 303 301 296 293 289 290 286 278 274 272 273 276 278 281 281
316 317 318 319 320 319 319 317 317 316 314 313 313 313 314 313 312 310 306 307 305 303 302 300 299 298 298 295 297 299 293 288 285 283 283 278 272 270 271 273 275 278 279